Weather in Denisovo

Russia / Tyumen Oblast     56°39′23″N   65°39′05″E
temp.,
°C
wind,
m/s
gust,
m/s
humid.,
%
clouds,
%
prec.,
mm/h
press.,
hPa
HPBL,
m
17 april, sat
sat1723:00+2ne38600 0.0 1028206
02:000ene24675 0.0 102872
05:00−1sse22675 0.0 102818
08:00+3ssw34540 0.0 1027303
11:00+8wsw45403 0.0 10251370
14:00+10wsw57345 0.0 10232013
17:00+11w583474 0.0 10202313
20:00+7w355590 0.0 101996
18 april, sun
sun1823:00+5wsw38595 0.0 1018150
02:00+3w4106699 0.0 1015224
05:00+3w5137532 0.0 1013388
08:00+5wnw71272100 0.0 10131032
11:00+1n9116083 0.3 10181032
14:00+2nne8103893 0.0 10222038
17:00+1nne79295 0.0 10262098
20:00−2nne69400 0.0 10291137
19 april, mon
mon1923:00−4ne48450 0.0 10311138
02:00−5nne37462 0.0 10331067
05:00−6nne36492 0.0 1034689
08:00−4nne464071 0.0 10351445
11:00−1n4632100 0.0 10352033
14:000n5627100 0.0 10352303
17:00+1n4728100 0.0 10342289
20:00−2ne224268 0.0 103513
20 april, tue
tue2023:00−4nne11480 0.0 103510
02:00−4sw11485 0.0 103510
05:00−5wnw24515 0.0 103575
08:000w363355 0.0 1035423
11:00+5wnw4631100 0.0 10331523
14:00+7wnw683090 0.0 10301595
17:00+9nw68345 0.0 10291675
20:00+4wnw36565 0.0 102988
21 april, wed
wed2123:00+3wnw410655 0.0 1029186
02:00+2wnw410715 0.0 1029186
05:00+1wnw410760 0.0 1030193
08:00+5nw511625 0.0 1031506
11:00+9nnw68495 0.0 10301074
14:00+12nnw57405 0.0 10311592
17:00+12nne564575 0.0 10321520
20:00+7ene586815 0.0 1034333